Lander, WY

8:35 PM MST on December 05, 2016 (GMT -0700)
Hunt

Weather History for KLND - February, 2012

Change the Weather History Date:

Wednesday, February 29, 2012

  Actual Average Record
Temperature  
Mean Temperature 24 °F 30 °F  
Max Temperature 39 °F 42 °F 59 °F (1992)
Min Temperature 8 °F 18 °F -19 °F (1912)
Degree Days  
Heating Degree Days 41 35  
Month to date heating degree days 1124 1149  
Since 1 July heating degree days 5343 5739  
Cooling Degree Days 0 0  
Month to date cooling degree days 0 0  
Year to date cooling degree days 0 0  
Moisture  
Dew Point 14 °F    
Average Humidity 65    
Maximum Humidity 100    
Minimum Humidity 29    
Precipitation  
Precipitation T in 0.03 in 0.29 in (1928)
Month to date precipitation 0.87 0.58  
Year to date precipitation 1.31 0.99  
Snow  
Snow T in 0.40 in - ()
Month to date snowfall 14.3 10.3  
Since 1 July snowfall 51.7 53.6  
Snow Depth 3.00 in    
Sea Level Pressure  
Sea Level Pressure 29.82 in    
Wind  
Wind Speed 9 mph (West)    
Max Wind Speed 30 mph    
Max Gust Speed 41 mph    
Visibility 8 miles    
Events Fog , Snow    
T = Trace of Precipitation, MM = Missing Value Source: NWS Daily Summary

Daily Weather History Graph

Daily Weather History Graph

Search for Another Location

Airport or City:

Trip Planner

Search our weather history database for the weather conditions in past years. The results will help you decide how hot, cold, wet, or windy it might be!

Date:

Astronomy

Feb. 29, 2012 Rise Set
Actual Time 6:51 AM MST 6:03 PM MST
Civil Twilight 6:23 AM MST 6:32 PM MST
Nautical Twilight 5:50 AM MST 7:05 PM MST
Astronomical Twilight 5:17 AM MST 7:37 PM MST
Moon 10:33 AM MST (2/29) 1:04 AM MST (2/29)
Length of Visible Light 12h 09m
Length of Day
11h 12m
Waxing Crescent, 48% of the Moon is Illuminated
Feb 29
Waxing Crescent
Feb 29
First Quarter
Mar 8
Full
Mar 14
Last Quarter
Mar 22
New

Hourly Weather History & Observations

Time (MST) Temp. Windchill Dew Point Humidity Pressure Visibility Wind Dir Wind Speed Gust Speed Precip Events Conditions
12:34 AM 15.8 °F 5.1 °F 14.0 °F 93% 29.85 in 0.2 mi NW 8.1 mph - N/A Fog Light Freezing Fog
12:53 AM 16.0 °F 10.4 °F 15.1 °F 96% 29.98 in 0.2 mi SSW 3.5 mph - N/A Fog Light Freezing Fog
1:04 AM 15.8 °F 8.6 °F 12.2 °F 86% 29.85 in 0.2 mi WSW 4.6 mph - N/A Fog Light Freezing Fog
1:30 AM 15.8 °F - 10.4 °F 79% 29.85 in 1.8 mi Calm Calm - N/A   Haze
1:38 AM 12.2 °F - 8.6 °F 85% 29.84 in 0.8 mi Calm Calm - N/A   Mist
1:53 AM 10.9 °F 2.9 °F 9.0 °F 92% 29.99 in 0.2 mi ESE 4.6 mph - N/A Fog Light Freezing Fog
2:36 AM 10.4 °F 4.0 °F 6.8 °F 85% 29.82 in 2.0 mi ESE 3.5 mph - N/A   Scattered Clouds
2:44 AM 10.4 °F 0.8 °F 6.8 °F 85% 29.83 in 7.0 mi NNW 5.8 mph - N/A   Partly Cloudy
2:53 AM 10.9 °F 2.9 °F 7.0 °F 84% 29.98 in 9.0 mi NW 4.6 mph - N/A   Clear
3:53 AM 12.9 °F - 9.0 °F 84% 29.95 in 10.0 mi Calm Calm - N/A   Clear
4:53 AM 15.1 °F - 9.0 °F 77% 29.96 in 10.0 mi Calm Calm - N/A   Clear
5:53 AM 12.0 °F 5.9 °F 7.0 °F 80% 29.96 in 10.0 mi ESE 3.5 mph - N/A   Clear
6:53 AM 12.0 °F - 6.1 °F 77% 29.97 in 10.0 mi Calm Calm - N/A   Clear
7:53 AM 17.1 °F - 9.0 °F 71% 29.95 in 10.0 mi Calm Calm - N/A   Clear
8:53 AM 19.0 °F 12.3 °F 14.0 °F 81% 29.94 in 10.0 mi NW 4.6 mph - N/A   Clear
9:53 AM 21.0 °F - 15.1 °F 78% 29.90 in 10.0 mi Calm Calm - N/A   Clear
10:53 AM 28.9 °F 23.9 °F 14.0 °F 54% 29.85 in 10.0 mi NNE 4.6 mph - N/A   Clear
11:53 AM 32.0 °F 22.1 °F 21.0 °F 64% 29.83 in 10.0 mi NNE 13.8 mph - N/A   Clear
12:53 PM 37.9 °F - 23.0 °F 55% 29.77 in 10.0 mi Calm Calm - N/A   Clear
1:53 PM 37.0 °F 24.9 °F 21.0 °F 52% 29.75 in 10.0 mi SW 27.6 mph 41.4 mph N/A   Clear
2:53 PM 37.9 °F 26.8 °F 21.0 °F 51% 29.71 in 10.0 mi SW 24.2 mph 36.8 mph N/A   Clear
3:53 PM 36.0 °F 23.0 °F 21.0 °F 55% 29.72 in 10.0 mi SW 29.9 mph 38.0 mph N/A   Clear
4:53 PM 34.0 °F 22.1 °F 25.0 °F 70% 29.72 in 8.0 mi SSW 21.9 mph 32.2 mph N/A   Overcast
5:53 PM 37.0 °F 28.5 °F 23.0 °F 57% 29.70 in 10.0 mi South 13.8 mph - N/A   Overcast
6:53 PM 37.0 °F 26.7 °F 21.0 °F 52% 29.70 in 10.0 mi SSW 19.6 mph 24.2 mph N/A   Overcast
7:27 PM 32.0 °F 22.1 °F 26.6 °F 80% 29.63 in 3.0 mi West 13.8 mph 25.3 mph 0.00 in Snow Light Snow
7:53 PM 32.0 °F 22.1 °F 21.9 °F 66% 29.76 in 10.0 mi NNW 13.8 mph - 0.00 in   Overcast
8:00 PM 30.2 °F 21.3 °F 24.8 °F 80% 29.67 in 10.0 mi NW 10.4 mph - N/A   Overcast
8:53 PM 32.0 °F 25.6 °F 14.0 °F 48% 29.76 in 10.0 mi Variable 6.9 mph 26.5 mph N/A   Scattered Clouds
9:53 PM 32.0 °F 23.6 °F 3.9 °F 31% 29.70 in 10.0 mi NW 10.4 mph 20.7 mph N/A   Clear
10:53 PM 30.0 °F 21.1 °F 3.9 °F 33% 29.72 in 10.0 mi WNW 10.4 mph 19.6 mph N/A   Clear
11:53 PM 26.1 °F 18.4 °F 7.0 °F 44% 29.77 in 10.0 mi West 6.9 mph - N/A   Clear